{"data":{"norad_id":67871,"epoch":"2026-05-25T05:06:08.678016Z","epoch_age_seconds":60610,"freshness":"FRESH","line1":"1 67871U 26034X   26145.21260044  .00011065  00000+0  38505-3 0  9997","line2":"2 67871  53.1576 208.6571 0001075  94.7335 265.3789 15.30209728 15756","mean_motion":15.30209728,"eccentricity":0.0001075,"inclination_deg":53.1576,"raan_deg":208.6571,"arg_perigee_deg":94.7335,"mean_anomaly_deg":265.3789,"bstar":0.00038505,"rev_number":1575,"period_min":94.104747450671,"perigee_km":474.44929129366,"apogee_km":475.92275574371,"semimajor_km":6853.3230235187,"source":"CELESTRAK","updated_at":"2026-05-25T13:38:21.729352Z"}}